Location: Clanezzo
(45.7500°N, 9.6000°E)
Time: 21:01:12
(UTC+00:00)

JY1SAT - Visible Passes

Search period start: 26 June 2022 00:00
Search period end: 06 July 2022 00:00
Orbit: 566 x 585 km, 97.6° (Epoch: 26 June)

Date Brightness Start Highest point End Pass type
(mag) Time Alt. Az. Time Alt. Az. Time Alt. Az.
26 Jun ? 19:57:17 10° SE 20:00:50 28° ENE 20:04:23 10° N visible
26 Jun ? 21:33:05 13° SSW 21:36:01 28° W 21:39:37 10° NW visible
27 Jun ? 20:00:48 10° SE 20:04:26 30° ENE 20:08:05 10° N visible
27 Jun ? 21:36:45 13° SSW 21:39:40 26° W 21:43:10 10° NW visible
28 Jun ? 20:04:19 10° SE 20:08:01 33° ENE 20:11:46 10° N visible
28 Jun ? 21:40:24 12° SW 21:43:19 23° W 21:46:42 10° NW visible
29 Jun ? 20:07:50 10° SE 20:11:38 36° ENE 20:15:26 10° N visible
29 Jun ? 21:44:04 11° SW 21:46:58 22° W 21:50:12 10° NW visible
30 Jun ? 20:11:29 11° SE 20:15:13 39° ENE 20:19:06 10° N visible
30 Jun ? 21:47:44 11° SW 21:50:37 20° W 21:53:42 10° NW visible
01 Jul ? 20:15:09 11° SE 20:18:49 42° ENE 20:22:46 10° N visible
01 Jul ? 21:51:24 10° SW 21:54:16 18° W 21:57:11 10° NW visible
02 Jul ? 20:18:49 12° SE 20:22:25 46° ENE 20:26:24 10° N visible
02 Jul ? 21:55:12 10° SW 21:57:54 17° W 22:00:38 10° NW visible
03 Jul ? 20:22:29 13° SE 20:26:01 51° ENE 20:30:03 10° N visible
03 Jul ? 21:59:04 10° SW 22:01:34 15° W 22:04:03 10° NW visible
04 Jul ? 20:26:08 14° SSE 20:29:37 56° ENE 20:33:41 10° N visible
04 Jul ? 22:02:58 10° WSW 22:05:12 14° W 22:07:26 10° WNW visible
05 Jul ? 20:29:48 14° SSE 20:33:12 61° ENE 20:37:19 10° N visible
05 Jul ? 22:06:55 10° WSW 22:08:50 13° W 22:10:46 10° WNW visible
